This demonstration page uses our WeatherBlox Daily Observations layout. Learn more.

Left ArrowRight Arrow

Hourly Observations for May 29, 2018

Temp ( °F °C ) Dew Point ( °F °C ) Humidity (%) Winds ( mph kmh ) Pressure ( in mb ) Visibility ( mi km ) Precip ( " mm )
12:05 am 00:05 Cloudy with Nearby Thunderstorms 63 17 57 14 83 83 W 18 30 29.91 1013 10 16 0.00 0.00
12:20 am 00:20 Cloudy with Light Rain 63 17 57 14 83 83 W 16 26 29.91 1013 10 16 0.01 0.25
12:56 am 00:56 Cloudy with Light Rain 62 16.7 59 15 90 90 W 15 24 29.98 1015 10 16 0.04 1.02
1:56 am 01:56 Cloudy with Light Rain 61 16.1 59 15 93 93 W 7 11 29.93 1014 10 16 0.01 0.25
2:56 am 02:56 Mostly Cloudy 60 15.6 59 15 96 96 S 7 11 29.90 1013 10 16 0.01 0.25
3:56 am 03:56 Partly Cloudy 60 15.6 59 15 96 96 ESE 6 9 29.81 1010 10 16 0.00 0.00
4:56 am 04:56 Mostly Clear 61 16.1 58 14.4 90 90 SSE 13 20 29.81 1010 10 16 0.00 0.00
5:56 am 05:56 Mostly Clear 62 16.7 58 14.4 86 86 SSW 9 15 29.86 1011 10 16 0.00 0.00
6:56 am 06:56 Cloudy with Light Rain 62 16.7 58 14.4 86 86 SSE 9 15 29.87 1012 10 16 0.00 0.03
7:56 am 07:56 Sunny 64 17.8 59 15 84 84 SSW 6 9 29.89 1012 10 16 0.00 0.03
8:56 am 08:56 Mostly Cloudy 64 17.8 60 15.6 87 87 SSW 7 11 29.88 1012 10 16 0.00 0.03
9:56 am 09:56 Cloudy 66 18.9 59 15 78 78 SW 8 13 29.87 1012 10 16 0.00 0.00
10:42 am 10:42 Partly Cloudy 68 20 59 15 73 73 SSE 6 9 29.83 1010 10 16 0.00 0.00
10:56 am 10:56 Mostly Sunny 68 20 58 14.4 70 70 SSE 7 11 29.86 1011 10 16 0.00 0.00
11:56 am 11:56 Partly Cloudy 69 20.6 60 15.6 73 73 SSW 3 6 29.87 1011 10 16 0.00 0.00
12:39 pm 12:39 Cloudy with Thunderstorms 68 20 61 16 78 78 SSE 10 17 29.83 1010 9 14 0.00 0.00
12:54 pm 12:54 Cloudy with Light Rain 66 19 63 17 88 88 SSE 9 15 29.83 1010 10 16 0.04 1.02
12:56 pm 12:56 Cloudy with Light Rain 67 19.4 62 16.7 84 84 SE 9 15 29.87 1011 10 16 0.04 1.02
1:03 pm 13:03 Cloudy with Thunderstorms 66 19 63 17 88 88 ESE 5 7 29.80 1009 10 16 0.00 0.00
1:18 pm 13:18 Mostly Cloudy with Light Rain 68 20 63 17 83 83 WSW 5 7 29.83 1010 10 16 0.02 0.51
1:43 pm 13:43 Mostly Cloudy with Thunderstorms 66 19 61 16 83 83 SE 6 9 29.80 1009 10 16 0.00 0.00
1:56 pm 13:56 Mostly Cloudy with Thunderstorms 68 20 61 16.1 78 78 SE 9 15 29.83 1010 10 16 0.02 0.51
2:07 pm 14:07 Cloudy with Thunderstorms 66 19 61 16 83 83 SE 7 11 29.80 1009 4 6 0.06 1.52
2:54 pm 14:54 Cloudy with Thunderstorms 64 18 61 16 88 88 Calm 29.83 1010 10 16 0.13 3.30
2:56 pm 14:56 Cloudy with Thunderstorms 64 17.8 61 16.1 90 90 ESE 5 7 29.84 1011 10 16 0.13 3.30
3:07 pm 15:07 Cloudy with Nearby Thunderstorms 64 18 61 16 88 88 N 5 7 29.83 1010 10 16 0.00 0.00
3:56 pm 15:56 Cloudy with Thunderstorms 65 18.3 61 16.1 87 87 NNW 7 11 29.83 1010 10 16 0.03 0.76
4:02 pm 16:02 Cloudy with Thunderstorms 64 18 61 16 88 88 NNW 5 7 29.83 1010 10 16 0.00 0.00
4:15 pm 16:15 Cloudy with Light Rain 64 18 61 16 88 88 NNW 5 7 29.83 1010 10 16 0.00 0.00
4:56 pm 16:56 Cloudy 66 18.9 59 15 78 78 SSE 3 6 29.80 1009 10 16 0.00 0.03
5:34 pm 17:34 Cloudy with Thunderstorms 64 18 61 16 88 88 Calm 29.77 1008 4 6 0.11 2.79
5:56 pm 17:56 Cloudy with Nearby Thunderstorms 64 17.8 60 15.6 87 87 E 6 9 29.79 1009 10 16 0.11 2.79
6:09 pm 18:09 Cloudy with Light Rain 64 18 61 16 88 88 NE 3 6 29.77 1008 10 16 0.00 0.00
6:23 pm 18:23 Cloudy with Nearby Thunderstorms 64 18 61 16 88 88 Calm 29.74 1007 10 16 0.00 0.00
6:56 pm 18:56 Cloudy with Nearby Thunderstorms 65 18.3 61 16.1 87 87 E 13 20 29.75 1007 10 16 0.01 0.25
7:03 pm 19:03 Cloudy 64 18 61 16 88 88 E 14 22 29.74 1007 10 16 0.00 0.00
7:56 pm 19:56 Cloudy 63 17.2 59 15 87 87 Calm 29.76 1008 10 16 0.00 0.00
8:56 pm 20:56 Cloudy with Light Rain 63 17.2 60 15.6 90 90 E 6 9 29.78 1008 10 16 0.00 0.03
9:56 pm 21:56 Cloudy 63 17.2 60 15.6 90 90 SW 7 11 29.78 1009 10 16 0.00 0.03
10:56 pm 22:56 Mostly Clear 62 16.7 59 15 90 90 ESE 8 13 29.75 1008 10 16 0.00 0.00
11:56 pm 23:56 Clear 61 16.1 58 14.4 90 90 SE 6 9 29.75 1008 10 16 0.00 0.00

Powered by AerisWeather